MR 1

operational
NORAD ID: 67557 Int'l Des: 2026-015 Owner: OCOSB Country: E
LEOCIRCULARPOLAR

关于 MR 1

正在加载描述...

实时位置

正在加载3D地球...

即将过境

高度历史

Altitude vs Time

uPlot chart will show altitude changes over time

两行轨道根数

1 67557U 26015B 26071.08063118 .00000069 00000-0 86656-4 0 9997
2 67557 88.9935 278.4178 0003838 30.3190 329.8183 13.52663974 6588
Epoch: Mar 12, 2026 • Age: 25 hours

当前状态

高度 1082.7 km
速度 7.31 km/s
星下点 -53.04°S, 95.01°E
发射日期 Jan 22, 2026
运行时间 0.1 years
类型 other

技术详情

分类 Payload
质量 20.00 kg
干质量 20.00 kg
总质量 20.00 kg
长度 0.40 m
直径 0.20 m
跨度 0.40 m
形状 Box
制造商 OCOS
平台类型 Cubesat 12U
阶段状态 In Orbit
所有者/国家 OCOSB/E

大型星座

Loading constellations...